,,PressureMeas_1m,,PRMeasQMR101_1,,RHStat155_1m_1,,SRMeasQMS101R_1m,,TAStat155_1m_1,,GenWind_1,,GenWind_1,
2018-11-20, 00:00:06,VALID,920.787,VALID,0.0,VALID,96.494,VALID,0.002,VALID,19.232,VALID,350.0,VALID,0.0,
2018-11-20, 00:01:06,VALID,920.784,VALID,0.0,VALID,96.423,VALID,-0.005,VALID,19.22,VALID,348.0,VALID,0.0,
2018-11-20, 00:02:06,VALID,920.771,VALID,0.0,VALID,96.23,VALID,0.007,VALID,19.233,VALID,346.0,VALID,0.0,
2018-11-20, 00:03:06,VALID,920.765,VALID,0.0,VALID,96.061,VALID,-0.003,VALID,19.235,VALID,347.0,VALID,0.0,
2018-11-20, 00:04:06,VALID,920.759,VALID,0.0,VALID,96.006,VALID,-0.0,VALID,19.241,VALID,346.0,VALID,0.0,
2018-11-20, 00:05:06,VALID,920.754,VALID,0.0,VALID,95.947,VALID,-0.002,VALID,19.241,VALID,8.0,VALID,0.0,
2018-11-20, 00:06:06,VALID,920.741,VALID,0.0,VALID,95.946,VALID,-0.014,VALID,19.249,VALID,2.0,VALID,0.0,
2018-11-20, 00:07:06,VALID,920.727,VALID,0.0,VALID,95.862,VALID,-0.002,VALID,19.249,VALID,360.0,VALID,0.0,
2018-11-20, 00:08:06,VALID,920.729,VALID,0.0,VALID,95.815,VALID,0.014,VALID,19.237,VALID,358.0,VALID,0.0,
2018-11-20, 00:09:06,VALID,920.716,VALID,0.0,VALID,95.955,VALID,-0.002,VALID,19.234,VALID,356.0,VALID,0.0,
2018-11-20, 00:10:06,VALID,920.68,VALID,0.0,VALID,95.871,VALID,-0.002,VALID,19.192,VALID,360.0,VALID,0.0,
2018-11-20, 00:11:06,VALID,920.664,VALID,0.0,VALID,96.01,VALID,-0.011,VALID,19.162,VALID,3.0,VALID,0.0,
2018-11-20, 00:12:06,VALID,920.646,VALID,0.0,VALID,96.273,VALID,0.003,VALID,19.166,VALID,5.0,VALID,0.0,
2018-11-20, 00:13:06,VALID,920.611,VALID,0.0,VALID,96.266,VALID,-0.007,VALID,19.154,VALID,6.0,VALID,0.0,
2018-11-20, 00:14:06,VALID,920.618,VALID,0.0,VALID,96.284,VALID,0.001,VALID,19.139,VALID,10.0,VALID,0.0,
2018-11-20, 00:15:06,VALID,920.601,VALID,0.0,VALID,96.248,VALID,-0.021,VALID,19.108,VALID,25.0,VALID,0.0,
2018-11-20, 00:16:06,VALID,920.604,VALID,0.0,VALID,96.565,VALID,-0.005,VALID,19.124,VALID,29.0,VALID,0.0,
2018-11-20, 00:17:06,VALID,920.593,VALID,0.0,VALID,96.744,VALID,-0.002,VALID,19.131,VALID,29.0,VALID,0.0,
2018-11-20, 00:18:06,VALID,920.594,VALID,0.0,VALID,96.854,VALID,-0.013,VALID,19.126,VALID,38.0,VALID,0.0,
2018-11-20, 00:19:06,VALID,920.576,VALID,0.0,VALID,96.853,VALID,-0.014,VALID,19.111,VALID,43.0,VALID,0.0,
2018-11-20, 00:20:06,VALID,920.56,VALID,0.0,VALID,96.966,VALID,-0.011,VALID,19.1,VALID,43.0,VALID,0.0,
2018-11-20, 00:21:06,VALID,920.543,VALID,0.0,VALID,97.082,VALID,-0.029,VALID,19.101,VALID,43.0,VALID,0.0,
2018-11-20, 00:22:06,VALID,920.506,VALID,0.0,VALID,97.207,VALID,-0.014,VALID,19.122,VALID,43.0,VALID,0.0,
2018-11-20, 00:23:06,VALID,920.479,VALID,0.0,VALID,97.345,VALID,-0.002,VALID,19.154,VALID,42.0,VALID,0.0,
2018-11-20, 00:24:06,VALID,920.464,VALID,0.0,VALID,97.377,VALID,-0.017,VALID,19.189,VALID,42.0,VALID,0.0,
2018-11-20, 00:25:06,VALID,920.443,VALID,0.0,VALID,97.311,VALID,0.003,VALID,19.202,VALID,42.0,VALID,0.0,
2018-11-20, 00:26:06,VALID,920.446,VALID,0.0,VALID,97.272,VALID,0.016,VALID,19.227,VALID,42.0,VALID,0.0,
2018-11-20, 00:27:06,VALID,920.429,VALID,0.0,VALID,97.203,VALID,0.018,VALID,19.238,VALID,44.0,VALID,0.0,
2018-11-20, 00:28:06,VALID,920.431,VALID,0.0,VALID,96.943,VALID,0.014,VALID,19.204,VALID,95.0,VALID,0.0,
2018-11-20, 00:29:06,VALID,920.431,VALID,0.0,VALID,96.705,VALID,0.001,VALID,19.148,VALID,107.0,VALID,0.0,
2018-11-20, 00:30:06,VALID,920.422,VALID,0.0,VALID,96.577,VALID,0.013,VALID,19.096,VALID,114.0,VALID,0.0,
2018-11-20, 00:31:06,VALID,920.411,VALID,0.0,VALID,97.104,VALID,-0.003,VALID,19.071,VALID,120.0,VALID,0.0,
2018-11-20, 00:32:06,VALID,920.428,VALID,0.0,VALID,97.521,VALID,0.001,VALID,19.037,VALID,122.0,VALID,0.0,
2018-11-20, 00:33:06,VALID,920.41,VALID,0.0,VALID,97.766,VALID,0.01,VALID,18.993,VALID,121.0,VALID,0.0,
2018-11-20, 00:34:06,VALID,920.405,VALID,0.0,VALID,98.033,VALID,-0.01,VALID,19.006,VALID,121.0,VALID,0.0,
2018-11-20, 00:35:06,VALID,920.409,VALID,0.0,VALID,98.232,VALID,-0.004,VALID,19.023,VALID,121.0,VALID,0.0,
2018-11-20, 00:36:06,VALID,920.399,VALID,0.0,VALID,98.285,VALID,0.014,VALID,19.025,VALID,121.0,VALID,0.0,
2018-11-20, 00:37:06,VALID,920.381,VALID,0.0,VALID,98.281,VALID,-0.0,VALID,18.994,VALID,121.0,VALID,0.0,
2018-11-20, 00:38:06,VALID,920.381,VALID,0.0,VALID,98.274,VALID,-0.01,VALID,18.975,VALID,121.0,VALID,0.0,
2018-11-20, 00:39:06,VALID,920.371,VALID,0.0,VALID,98.315,VALID,-0.019,VALID,18.964,VALID,113.0,VALID,0.0,
2018-11-20, 00:40:06,VALID,920.344,VALID,0.0,VALID,98.203,VALID,-0.003,VALID,18.897,VALID,89.0,VALID,0.0,
2018-11-20, 00:41:06,VALID,920.336,VALID,0.0,VALID,98.226,VALID,-0.017,VALID,18.858,VALID,90.0,VALID,0.0,
2018-11-20, 00:42:06,VALID,920.332,VALID,0.0,VALID,98.229,VALID,-0.005,VALID,18.834,VALID,93.0,VALID,0.0,
2018-11-20, 00:43:06,VALID,920.31,VALID,0.0,VALID,98.254,VALID,0.001,VALID,18.823,VALID,102.0,VALID,0.0,
2018-11-20, 00:44:06,VALID,920.293,VALID,0.0,VALID,98.299,VALID,-0.004,VALID,18.821,VALID,102.0,VALID,0.0,
2018-11-20, 00:45:06,VALID,920.277,VALID,0.0,VALID,98.302,VALID,0.004,VALID,18.806,VALID,103.0,VALID,0.0,
2018-11-20, 00:46:06,VALID,920.279,VALID,0.0,VALID,98.371,VALID,0.004,VALID,18.809,VALID,102.0,VALID,0.0,
2018-11-20, 00:47:06,VALID,920.272,VALID,0.0,VALID,98.375,VALID,-0.003,VALID,18.793,VALID,102.0,VALID,0.0,
2018-11-20, 00:48:06,VALID,920.248,VALID,0.0,VALID,98.366,VALID,-0.004,VALID,18.778,VALID,102.0,VALID,0.0,
2018-11-20, 00:49:06,VALID,920.22,VALID,0.0,VALID,98.383,VALID,-0.005,VALID,18.783,VALID,102.0,VALID,0.0,
2018-11-20, 00:50:06,VALID,920.199,VALID,0.0,VALID,98.466,VALID,0.002,VALID,18.832,VALID,102.0,VALID,0.0,
2018-11-20, 00:51:06,VALID,920.163,VALID,0.0,VALID,98.512,VALID,0.014,VALID,18.877,VALID,102.0,VALID,0.0,
2018-11-20, 00:52:06,VALID,920.136,VALID,0.0,VALID,98.525,VALID,0.007,VALID,18.9,VALID,108.0,VALID,0.0,
2018-11-20, 00:53:06,VALID,920.111,VALID,0.0,VALID,98.486,VALID,0.013,VALID,18.912,VALID,122.0,VALID,0.0,
2018-11-20, 00:54:06,VALID,920.105,VALID,0.0,VALID,98.443,VALID,-0.004,VALID,18.905,VALID,123.0,VALID,0.0,
2018-11-20, 00:55:06,VALID,920.072,VALID,0.0,VALID,98.398,VALID,0.051,VALID,18.889,VALID,123.0,VALID,0.0,
2018-11-20, 00:56:06,VALID,920.026,VALID,0.0,VALID,98.381,VALID,0.043,VALID,18.866,VALID,123.0,VALID,0.0,
2018-11-20, 00:57:06,VALID,920.027,VALID,0.0,VALID,98.477,VALID,0.052,VALID,18.908,VALID,123.0,VALID,0.0,
2018-11-20, 00:58:06,VALID,919.977,VALID,0.0,VALID,98.532,VALID,0.053,VALID,18.924,VALID,124.0,VALID,0.0,
2018-11-20, 00:59:06,VALID,919.954,VALID,0.0,VALID,98.496,VALID,0.039,VALID,18.903,VALID,115.0,VALID,0.0,
2018-11-20, 01:00:06,VALID,919.922,VALID,0.0,VALID,98.413,VALID,0.046,VALID,18.843,VALID,110.0,VALID,0.0,
2018-11-20, 01:01:06,VALID,919.879,VALID,0.0,VALID,98.318,VALID,0.047,VALID,18.794,VALID,106.0,VALID,0.0,
2018-11-20, 01:02:06,VALID,919.882,VALID,0.0,VALID,98.362,VALID,0.036,VALID,18.81,VALID,111.0,VALID,0.0,
2018-11-20, 01:03:06,VALID,919.828,VALID,0.0,VALID,98.389,VALID,0.048,VALID,18.803,VALID,109.0,VALID,0.0,
2018-11-20, 01:04:06,VALID,919.802,VALID,0.0,VALID,98.419,VALID,0.043,VALID,18.807,VALID,109.0,VALID,0.0,
2018-11-20, 01:05:06,VALID,919.785,VALID,0.0,VALID,98.441,VALID,0.05,VALID,18.803,VALID,107.0,VALID,0.0,
2018-11-20, 01:06:06,VALID,919.751,VALID,0.0,VALID,98.454,VALID,0.028,VALID,18.788,VALID,106.0,VALID,0.0,
2018-11-20, 01:07:06,VALID,919.739,VALID,0.0,VALID,98.578,VALID,0.052,VALID,18.843,VALID,108.0,VALID,0.0,
2018-11-20, 01:08:06,VALID,919.725,VALID,0.0,VALID,98.605,VALID,0.058,VALID,18.846,VALID,107.0,VALID,0.0,
2018-11-20, 01:09:06,VALID,919.713,VALID,0.0,VALID,98.64,VALID,0.031,VALID,18.854,VALID,106.0,VALID,0.0,
2018-11-20, 01:10:06,VALID,919.689,VALID,0.0,VALID,98.593,VALID,0.019,VALID,18.818,VALID,100.0,VALID,0.0,
2018-11-20, 01:11:06,VALID,919.685,VALID,0.0,VALID,98.596,VALID,0.044,VALID,18.816,VALID,109.0,VALID,0.0,
2018-11-20, 01:12:06,VALID,919.663,VALID,0.0,VALID,98.713,VALID,0.049,VALID,18.871,VALID,110.0,VALID,0.0,
2018-11-20, 01:13:06,VALID,919.654,VALID,0.0,VALID,98.755,VALID,0.043,VALID,18.897,VALID,110.0,VALID,0.0,
2018-11-20, 01:14:06,VALID,919.644,VALID,0.0,VALID,98.744,VALID,0.035,VALID,18.877,VALID,108.0,VALID,0.0,
2018-11-20, 01:15:06,VALID,919.587,VALID,0.0,VALID,98.75,VALID,0.034,VALID,18.852,VALID,101.0,VALID,0.0,
2018-11-20, 01:16:06,VALID,919.562,VALID,0.0,VALID,98.717,VALID,0.041,VALID,18.81,VALID,104.0,VALID,0.0,
2018-11-20, 01:17:06,VALID,919.537,VALID,0.0,VALID,98.725,VALID,0.044,VALID,18.795,VALID,103.0,VALID,0.0,
2018-11-20, 01:18:06,VALID,919.504,VALID,0.0,VALID,98.736,VALID,0.03,VALID,18.796,VALID,102.0,VALID,0.0,
2018-11-20, 01:19:06,VALID,919.45,VALID,0.0,VALID,98.713,VALID,0.033,VALID,18.794,VALID,103.0,VALID,0.0,
2018-11-20, 01:20:06,VALID,919.436,VALID,0.0,VALID,98.706,VALID,0.019,VALID,18.784,VALID,103.0,VALID,0.0,
2018-11-20, 01:21:06,VALID,919.437,VALID,0.0,VALID,98.701,VALID,0.017,VALID,18.782,VALID,103.0,VALID,0.0,
2018-11-20, 01:22:06,VALID,919.407,VALID,0.0,VALID,98.742,VALID,0.022,VALID,18.816,VALID,104.0,VALID,0.0,
2018-11-20, 01:23:06,VALID,919.385,VALID,0.0,VALID,98.745,VALID,0.024,VALID,18.83,VALID,105.0,VALID,0.0,
2018-11-20, 01:24:06,VALID,919.381,VALID,0.0,VALID,98.659,VALID,0.014,VALID,18.813,VALID,105.0,VALID,0.0,
2018-11-20, 01:25:06,VALID,919.384,VALID,0.0,VALID,98.627,VALID,0.033,VALID,18.804,VALID,112.0,VALID,0.0,
2018-11-20, 01:26:06,VALID,919.367,VALID,0.0,VALID,98.633,VALID,0.036,VALID,18.812,VALID,111.0,VALID,0.0,
2018-11-20, 01:27:06,VALID,919.357,VALID,0.0,VALID,98.709,VALID,0.048,VALID,18.855,VALID,117.0,VALID,0.0,
2018-11-20, 01:28:06,VALID,919.331,VALID,0.0,VALID,98.706,VALID,0.029,VALID,18.843,VALID,117.0,VALID,0.0,
2018-11-20, 01:29:06,VALID,919.327,VALID,0.0,VALID,98.694,VALID,0.023,VALID,18.8,VALID,113.0,VALID,0.0,
2018-11-20, 01:30:06,VALID,919.314,VALID,0.0,VALID,98.719,VALID,0.035,VALID,18.779,VALID,113.0,VALID,0.0,
2018-11-20, 01:31:06,VALID,919.307,VALID,0.0,VALID,98.719,VALID,0.039,VALID,18.768,VALID,100.0,VALID,0.0,
2018-11-20, 01:32:06,VALID,919.29,VALID,0.0,VALID,98.762,VALID,0.039,VALID,18.775,VALID,99.0,VALID,0.0,
2018-11-20, 01:33:06,VALID,919.282,VALID,0.0,VALID,98.805,VALID,0.041,VALID,18.79,VALID,99.0,VALID,0.0,
2018-11-20, 01:34:06,VALID,919.244,VALID,0.0,VALID,98.868,VALID,0.036,VALID,18.829,VALID,98.0,VALID,0.0,
2018-11-20, 01:35:06,VALID,919.219,VALID,0.0,VALID,98.842,VALID,0.039,VALID,18.814,VALID,91.0,VALID,0.0,
2018-11-20, 01:36:06,VALID,919.197,VALID,0.0,VALID,98.809,VALID,0.043,VALID,18.784,VALID,86.0,VALID,0.0,
2018-11-20, 01:37:06,VALID,919.193,VALID,0.0,VALID,98.836,VALID,0.041,VALID,18.781,VALID,86.0,VALID,0.0,
2018-11-20, 01:38:06,VALID,919.163,VALID,0.0,VALID,98.827,VALID,0.04,VALID,18.789,VALID,86.0,VALID,0.0,
2018-11-20, 01:39:06,VALID,919.154,VALID,0.0,VALID,98.845,VALID,0.033,VALID,18.827,VALID,97.0,VALID,0.0,
2018-11-20, 01:40:06,VALID,919.146,VALID,0.0,VALID,98.827,VALID,0.008,VALID,18.832,VALID,104.0,VALID,0.0,
2018-11-20, 01:41:06,VALID,919.128,VALID,0.0,VALID,98.729,VALID,-0.013,VALID,18.807,VALID,104.0,VALID,0.0,
2018-11-20, 01:42:06,VALID,919.113,VALID,0.0,VALID,98.664,VALID,-0.014,VALID,18.785,VALID,104.0,VALID,0.0,
2018-11-20, 01:43:06,VALID,919.084,VALID,0.0,VALID,98.631,VALID,-0.005,VALID,18.791,VALID,97.0,VALID,0.0,
2018-11-20, 01:44:06,VALID,919.069,VALID,0.0,VALID,98.583,VALID,0.011,VALID,18.8,VALID,88.0,VALID,0.0,
2018-11-20, 01:45:06,VALID,919.062,VALID,0.0,VALID,98.406,VALID,0.007,VALID,18.745,VALID,80.0,VALID,0.0,
2018-11-20, 01:46:06,VALID,919.056,VALID,0.0,VALID,98.362,VALID,-0.007,VALID,18.722,VALID,76.0,VALID,0.0,
2018-11-20, 01:47:06,VALID,919.04,VALID,0.0,VALID,98.431,VALID,0.012,VALID,18.752,VALID,76.0,VALID,0.0,
2018-11-20, 01:48:06,VALID,919.031,VALID,0.0,VALID,98.464,VALID,0.002,VALID,18.784,VALID,76.0,VALID,0.0,
2018-11-20, 01:49:06,VALID,918.999,VALID,0.0,VALID,98.453,VALID,0.005,VALID,18.796,VALID,76.0,VALID,0.0,
2018-11-20, 01:50:06,VALID,919.009,VALID,0.0,VALID,98.407,VALID,0.003,VALID,18.778,VALID,76.0,VALID,0.0,
2018-11-20, 01:51:06,VALID,919.022,VALID,0.0,VALID,98.345,VALID,-0.009,VALID,18.755,VALID,76.0,VALID,0.0,
2018-11-20, 01:52:06,VALID,919.032,VALID,0.0,VALID,98.306,VALID,0.009,VALID,18.737,VALID,76.0,VALID,0.0,
2018-11-20, 01:53:06,VALID,919.042,VALID,0.0,VALID,98.242,VALID,-0.019,VALID,18.699,VALID,76.0,VALID,0.0,
2018-11-20, 01:54:06,VALID,919.073,VALID,0.0,VALID,98.13,VALID,0.003,VALID,18.65,VALID,75.0,VALID,0.0,
2018-11-20, 01:55:06,VALID,919.078,VALID,0.0,VALID,98.24,VALID,-0.028,VALID,18.677,VALID,65.0,VALID,0.0,
2018-11-20, 01:56:06,VALID,919.063,VALID,0.0,VALID,98.296,VALID,-0.017,VALID,18.701,VALID,65.0,VALID,0.0,
2018-11-20, 01:57:06,VALID,919.041,VALID,0.0,VALID,98.291,VALID,-0.026,VALID,18.682,VALID,65.0,VALID,0.0,
2018-11-20, 01:58:06,VALID,919.021,VALID,0.0,VALID,98.266,VALID,-0.043,VALID,18.681,VALID,65.0,VALID,0.0,
2018-11-20, 01:59:06,VALID,918.976,VALID,0.0,VALID,98.255,VALID,-0.027,VALID,18.692,VALID,65.0,VALID,0.0,
2018-11-20, 02:00:06,VALID,918.945,VALID,0.0,VALID,98.215,VALID,-0.032,VALID,18.699,VALID,65.0,VALID,0.0,
2018-11-20, 02:01:06,VALID,918.921,VALID,0.0,VALID,98.209,VALID,-0.025,VALID,18.721,VALID,65.0,VALID,0.0,
2018-11-20, 02:02:06,VALID,918.916,VALID,0.0,VALID,98.271,VALID,-0.048,VALID,18.762,VALID,65.0,VALID,0.0,
2018-11-20, 02:03:06,VALID,918.909,VALID,0.0,VALID,98.22,VALID,-0.03,VALID,18.747,VALID,65.0,VALID,0.0,
2018-11-20, 02:04:06,VALID,918.926,VALID,0.0,VALID,97.901,VALID,-0.049,VALID,18.651,VALID,65.0,VALID,0.0,
2018-11-20, 02:05:06,VALID,918.901,VALID,0.0,VALID,97.943,VALID,-0.049,VALID,18.672,VALID,65.0,VALID,0.0,
2018-11-20, 02:06:06,VALID,918.909,VALID,0.0,VALID,98.055,VALID,-0.039,VALID,18.711,VALID,65.0,VALID,0.0,
2018-11-20, 02:07:06,VALID,918.904,VALID,0.0,VALID,98.071,VALID,-0.039,VALID,18.724,VALID,65.0,VALID,0.0,
2018-11-20, 02:08:06,VALID,918.871,VALID,0.0,VALID,98.161,VALID,-0.021,VALID,18.764,VALID,65.0,VALID,0.0,
2018-11-20, 02:09:06,VALID,918.853,VALID,0.0,VALID,98.162,VALID,-0.025,VALID,18.752,VALID,65.0,VALID,0.0,
2018-11-20, 02:10:06,VALID,918.835,VALID,0.0,VALID,97.97,VALID,0.007,VALID,18.645,VALID,65.0,VALID,0.0,
2018-11-20, 02:11:06,VALID,918.82,VALID,0.0,VALID,97.583,VALID,0.0,VALID,18.487,VALID,68.0,VALID,0.0,
2018-11-20, 02:12:06,VALID,918.791,VALID,0.0,VALID,97.396,VALID,0.004,VALID,18.395,VALID,91.0,VALID,0.0,
2018-11-20, 02:13:06,VALID,918.751,VALID,0.0,VALID,97.454,VALID,0.015,VALID,18.375,VALID,99.0,VALID,0.0,
2018-11-20, 02:14:06,VALID,918.718,VALID,0.0,VALID,97.867,VALID,0.008,VALID,18.428,VALID,106.0,VALID,0.0,
2018-11-20, 02:15:06,VALID,918.705,VALID,0.0,VALID,98.016,VALID,0.005,VALID,18.408,VALID,108.0,VALID,0.0,
2018-11-20, 02:16:06,VALID,918.679,VALID,0.0,VALID,98.047,VALID,0.009,VALID,18.343,VALID,108.0,VALID,0.0,
2018-11-20, 02:17:06,VALID,918.665,VALID,0.0,VALID,98.028,VALID,-0.0,VALID,18.293,VALID,108.0,VALID,0.0,
2018-11-20, 02:18:06,VALID,918.664,VALID,0.0,VALID,97.963,VALID,0.001,VALID,18.217,VALID,106.0,VALID,0.0,
2018-11-20, 02:19:06,VALID,918.665,VALID,0.0,VALID,97.999,VALID,-0.002,VALID,18.197,VALID,96.0,VALID,0.0,
2018-11-20, 02:20:06,VALID,918.65,VALID,0.0,VALID,98.244,VALID,0.008,VALID,18.27,VALID,88.0,VALID,0.0,
2018-11-20, 02:21:06,VALID,918.64,VALID,0.0,VALID,98.426,VALID,0.002,VALID,18.342,VALID,90.0,VALID,0.0,
2018-11-20, 02:22:06,VALID,918.65,VALID,0.0,VALID,98.452,VALID,0.005,VALID,18.362,VALID,94.0,VALID,0.0,
2018-11-20, 02:23:06,VALID,918.635,VALID,0.0,VALID,98.515,VALID,0.001,VALID,18.403,VALID,98.0,VALID,0.0,
2018-11-20, 02:24:06,VALID,918.647,VALID,0.0,VALID,98.586,VALID,-0.01,VALID,18.44,VALID,95.0,VALID,0.0,
2018-11-20, 02:25:06,VALID,918.671,VALID,0.0,VALID,98.62,VALID,0.009,VALID,18.471,VALID,86.0,VALID,0.0,
2018-11-20, 02:26:06,VALID,918.667,VALID,0.0,VALID,98.599,VALID,0.015,VALID,18.485,VALID,88.0,VALID,0.0,
2018-11-20, 02:27:06,VALID,918.667,VALID,0.0,VALID,98.598,VALID,-0.003,VALID,18.48,VALID,82.0,VALID,0.0,
2018-11-20, 02:28:06,VALID,918.646,VALID,0.0,VALID,98.606,VALID,0.0,VALID,18.482,VALID,74.0,VALID,0.0,
2018-11-20, 02:29:06,VALID,918.645,VALID,0.0,VALID,98.599,VALID,0.01,VALID,18.442,VALID,72.0,VALID,0.0,
2018-11-20, 02:30:06,VALID,918.635,VALID,0.0,VALID,98.636,VALID,0.003,VALID,18.435,VALID,76.0,VALID,0.0,
2018-11-20, 02:31:06,VALID,918.61,VALID,0.0,VALID,98.646,VALID,0.014,VALID,18.401,VALID,85.0,VALID,0.0,
2018-11-20, 02:32:06,VALID,918.571,VALID,0.0,VALID,98.717,VALID,0.014,VALID,18.411,VALID,87.0,VALID,0.0,
2018-11-20, 02:33:06,VALID,918.562,VALID,0.0,VALID,98.78,VALID,0.001,VALID,18.435,VALID,93.0,VALID,0.0,
2018-11-20, 02:34:06,VALID,918.549,VALID,0.0,VALID,98.801,VALID,0.016,VALID,18.415,VALID,94.0,VALID,0.0,
2018-11-20, 02:35:06,VALID,918.53,VALID,0.0,VALID,98.762,VALID,0.003,VALID,18.381,VALID,94.0,VALID,0.0,
2018-11-20, 02:36:06,VALID,918.528,VALID,0.0,VALID,98.798,VALID,0.006,VALID,18.37,VALID,94.0,VALID,0.0,
2018-11-20, 02:37:06,VALID,918.506,VALID,0.0,VALID,98.846,VALID,0.016,VALID,18.389,VALID,94.0,VALID,0.0,
2018-11-20, 02:38:06,VALID,918.517,VALID,0.0,VALID,98.87,VALID,0.013,VALID,18.4,VALID,93.0,VALID,0.0,
2018-11-20, 02:39:06,VALID,918.496,VALID,0.0,VALID,98.911,VALID,0.01,VALID,18.424,VALID,91.0,VALID,0.0,
2018-11-20, 02:40:06,VALID,918.481,VALID,0.0,VALID,98.899,VALID,-0.04,VALID,18.418,VALID,91.0,VALID,0.0,
2018-11-20, 02:41:06,VALID,918.462,VALID,0.0,VALID,98.879,VALID,-0.038,VALID,18.381,VALID,92.0,VALID,0.0,
2018-11-20, 02:42:06,VALID,918.442,VALID,0.0,VALID,98.879,VALID,-0.031,VALID,18.38,VALID,100.0,VALID,0.0,
2018-11-20, 02:43:06,VALID,918.431,VALID,0.0,VALID,98.87,VALID,-0.028,VALID,18.366,VALID,101.0,VALID,0.0,
2018-11-20, 02:44:06,VALID,918.415,VALID,0.0,VALID,98.882,VALID,-0.022,VALID,18.356,VALID,105.0,VALID,0.0,
2018-11-20, 02:45:06,VALID,918.411,VALID,0.0,VALID,98.907,VALID,-0.038,VALID,18.355,VALID,102.0,VALID,0.0,
2018-11-20, 02:46:06,VALID,918.409,VALID,0.0,VALID,98.855,VALID,-0.063,VALID,18.32,VALID,103.0,VALID,0.0,
2018-11-20, 02:47:06,VALID,918.417,VALID,0.0,VALID,98.79,VALID,-0.046,VALID,18.254,VALID,100.0,VALID,0.0,
2018-11-20, 02:48:06,VALID,918.411,VALID,0.0,VALID,98.74,VALID,-0.043,VALID,18.196,VALID,100.0,VALID,0.0,
2018-11-20, 02:49:06,VALID,918.397,VALID,0.0,VALID,98.712,VALID,-0.057,VALID,18.161,VALID,102.0,VALID,0.0,
2018-11-20, 02:50:06,VALID,918.39,VALID,0.0,VALID,98.718,VALID,-0.033,VALID,18.147,VALID,102.0,VALID,0.0,
2018-11-20, 02:51:06,VALID,918.378,VALID,0.0,VALID,98.762,VALID,-0.042,VALID,18.167,VALID,110.0,VALID,0.0,
2018-11-20, 02:52:06,VALID,918.351,VALID,0.0,VALID,98.826,VALID,-0.033,VALID,18.177,VALID,111.0,VALID,0.0,
2018-11-20, 02:53:06,VALID,918.348,VALID,0.0,VALID,98.817,VALID,-0.037,VALID,18.164,VALID,103.0,VALID,0.0,
2018-11-20, 02:54:06,VALID,918.335,VALID,0.0,VALID,98.827,VALID,-0.033,VALID,18.132,VALID,103.0,VALID,0.0,
2018-11-20, 02:55:06,VALID,918.322,VALID,0.0,VALID,98.873,VALID,0.047,VALID,18.138,VALID,94.0,VALID,0.0,
2018-11-20, 02:56:06,VALID,918.299,VALID,0.0,VALID,98.919,VALID,0.042,VALID,18.153,VALID,92.0,VALID,0.0,
2018-11-20, 02:57:06,VALID,918.266,VALID,0.0,VALID,98.963,VALID,0.037,VALID,18.183,VALID,98.0,VALID,0.0,
2018-11-20, 02:58:06,VALID,918.26,VALID,0.0,VALID,98.997,VALID,0.038,VALID,18.218,VALID,104.0,VALID,0.0,
2018-11-20, 02:59:06,VALID,918.235,VALID,0.0,VALID,98.975,VALID,0.043,VALID,18.207,VALID,111.0,VALID,0.0,
2018-11-20, 03:00:06,VALID,918.201,VALID,0.0,VALID,99.043,VALID,0.034,VALID,18.264,VALID,117.0,VALID,0.0,
2018-11-20, 03:01:06,VALID,918.163,VALID,0.0,VALID,99.086,VALID,0.05,VALID,18.315,VALID,121.0,VALID,0.0,
2018-11-20, 03:02:06,VALID,918.153,VALID,0.0,VALID,99.141,VALID,0.039,VALID,18.368,VALID,123.0,VALID,0.0,
2018-11-20, 03:03:06,VALID,918.127,VALID,0.0,VALID,99.127,VALID,0.061,VALID,18.408,VALID,122.0,VALID,0.0,
2018-11-20, 03:04:06,VALID,918.109,VALID,0.0,VALID,99.119,VALID,0.049,VALID,18.393,VALID,122.0,VALID,0.0,
2018-11-20, 03:05:06,VALID,918.118,VALID,0.0,VALID,99.103,VALID,0.04,VALID,18.38,VALID,119.0,VALID,0.0,
2018-11-20, 03:06:06,VALID,918.123,VALID,0.0,VALID,99.127,VALID,0.017,VALID,18.397,VALID,119.0,VALID,0.0,
2018-11-20, 03:07:06,VALID,918.134,VALID,0.0,VALID,99.135,VALID,0.002,VALID,18.4,VALID,117.0,VALID,0.0,
2018-11-20, 03:08:06,VALID,918.13,VALID,0.0,VALID,99.146,VALID,0.024,VALID,18.407,VALID,121.0,VALID,0.0,
2018-11-20, 03:09:06,VALID,918.137,VALID,0.0,VALID,99.136,VALID,0.022,VALID,18.399,VALID,123.0,VALID,0.0,
2018-11-20, 03:10:06,VALID,918.138,VALID,0.0,VALID,99.155,VALID,0.017,VALID,18.409,VALID,123.0,VALID,0.0,
2018-11-20, 03:11:06,VALID,918.125,VALID,0.0,VALID,99.169,VALID,0.018,VALID,18.45,VALID,121.0,VALID,0.0,
2018-11-20, 03:12:06,VALID,918.129,VALID,0.0,VALID,99.161,VALID,0.008,VALID,18.435,VALID,120.0,VALID,0.0,
2018-11-20, 03:13:06,VALID,918.146,VALID,0.0,VALID,99.163,VALID,0.015,VALID,18.416,VALID,120.0,VALID,0.0,
2018-11-20, 03:14:06,VALID,918.137,VALID,0.0,VALID,99.165,VALID,0.015,VALID,18.428,VALID,112.0,VALID,0.0,
2018-11-20, 03:15:06,VALID,918.152,VALID,0.0,VALID,99.166,VALID,0.019,VALID,18.423,VALID,106.0,VALID,0.0,
2018-11-20, 03:16:06,VALID,918.139,VALID,0.0,VALID,99.172,VALID,-0.004,VALID,18.42,VALID,112.0,VALID,0.0,
2018-11-20, 03:17:06,VALID,918.138,VALID,0.0,VALID,99.195,VALID,0.018,VALID,18.444,VALID,117.0,VALID,0.0,
2018-11-20, 03:18:06,VALID,918.121,VALID,0.0,VALID,99.199,VALID,0.01,VALID,18.437,VALID,113.0,VALID,0.0,
2018-11-20, 03:19:06,VALID,918.102,VALID,0.0,VALID,99.163,VALID,0.015,VALID,18.418,VALID,118.0,VALID,0.0,
2018-11-20, 03:20:06,VALID,918.08,VALID,0.0,VALID,99.235,VALID,0.014,VALID,18.535,VALID,122.0,VALID,0.0,
2018-11-20, 03:21:06,VALID,918.07,VALID,0.0,VALID,99.258,VALID,0.023,VALID,18.554,VALID,119.0,VALID,0.0,
2018-11-20, 03:22:06,VALID,918.048,VALID,0.0,VALID,99.222,VALID,0.02,VALID,18.552,VALID,114.0,VALID,0.0,
2018-11-20, 03:23:06,VALID,918.03,VALID,0.0,VALID,99.219,VALID,0.018,VALID,18.573,VALID,118.0,VALID,0.0,
2018-11-20, 03:24:06,VALID,918.011,VALID,0.0,VALID,99.241,VALID,0.015,VALID,18.585,VALID,120.0,VALID,0.0,
2018-11-20, 03:25:06,VALID,918.0,VALID,0.0,VALID,99.198,VALID,0.063,VALID,18.499,VALID,115.0,VALID,0.0,
2018-11-20, 03:26:06,VALID,917.969,VALID,0.0,VALID,99.203,VALID,0.05,VALID,18.488,VALID,118.0,VALID,0.0,
2018-11-20, 03:27:06,VALID,917.966,VALID,0.0,VALID,99.228,VALID,0.053,VALID,18.465,VALID,113.0,VALID,0.0,
2018-11-20, 03:28:06,VALID,917.952,VALID,0.0,VALID,99.166,VALID,0.059,VALID,18.364,VALID,107.0,VALID,0.0,
2018-11-20, 03:29:06,VALID,917.94,VALID,0.0,VALID,99.161,VALID,0.048,VALID,18.333,VALID,104.0,VALID,0.0,
2018-11-20, 03:30:06,VALID,917.941,VALID,0.0,VALID,99.204,VALID,0.038,VALID,18.366,VALID,103.0,VALID,0.0,
2018-11-20, 03:31:06,VALID,917.924,VALID,0.0,VALID,99.241,VALID,0.044,VALID,18.386,VALID,105.0,VALID,0.0,
2018-11-20, 03:32:06,VALID,917.935,VALID,0.0,VALID,99.214,VALID,0.046,VALID,18.359,VALID,101.0,VALID,0.0,
2018-11-20, 03:33:06,VALID,917.931,VALID,0.0,VALID,99.209,VALID,0.054,VALID,18.306,VALID,99.0,VALID,0.0,
2018-11-20, 03:34:06,VALID,917.931,VALID,0.0,VALID,99.184,VALID,0.045,VALID,18.248,VALID,98.0,VALID,0.0,
2018-11-20, 03:35:06,VALID,917.924,VALID,0.0,VALID,99.165,VALID,0.062,VALID,18.202,VALID,94.0,VALID,0.0,
2018-11-20, 03:36:06,VALID,917.902,VALID,0.0,VALID,99.185,VALID,0.061,VALID,18.167,VALID,88.0,VALID,0.0,
2018-11-20, 03:37:06,VALID,917.887,VALID,0.0,VALID,99.223,VALID,0.039,VALID,18.171,VALID,90.0,VALID,0.0,
2018-11-20, 03:38:06,VALID,917.878,VALID,0.0,VALID,99.241,VALID,0.047,VALID,18.187,VALID,95.0,VALID,0.0,
2018-11-20, 03:39:06,VALID,917.874,VALID,0.0,VALID,99.242,VALID,0.046,VALID,18.204,VALID,95.0,VALID,0.0,
2018-11-20, 03:40:06,VALID,917.851,VALID,0.0,VALID,99.192,VALID,0.015,VALID,18.138,VALID,91.0,VALID,0.0,
2018-11-20, 03:41:06,VALID,917.828,VALID,0.0,VALID,99.195,VALID,0.028,VALID,18.116,VALID,90.0,VALID,0.0,
2018-11-20, 03:42:06,VALID,917.816,VALID,0.0,VALID,99.217,VALID,0.009,VALID,18.136,VALID,90.0,VALID,0.0,
2018-11-20, 03:43:06,VALID,917.787,VALID,0.0,VALID,99.239,VALID,0.011,VALID,18.142,VALID,82.0,VALID,0.0,